Location: Little Arabia
(41.4620°N, 81.7687°W)
Time: 20:52:14
(UTC+00:00)

Lacrosse 5 - Pass Details

Date: 29 October 2020
Orbit: 714 x 725 km, 57.0° (Epoch: 30 November)

Event Time Altitude Azimuth Distance (km) Brightness Sun altitude
Rises 23:07:59 0° 305° (NW) 3,118 5.9 -8.6°
Reaches altitude 10° 23:11:40 10° 332° (NNW) 2,198 4.6 -9.3°
Maximum altitude 23:14:06 13° 1° (N) 1,973 4.0 -9.7°
Drops below altitude 10° 23:16:33 10° 31° (NNE) 2,198 4.0 -10.2°
Enters shadow 23:17:50 - 42° (NE) 2,461 4.2 -10.4°
